Starlink 32175

operational
NORAD ID: 60339 Int'l Des: 2024-136 Owner: SPXS Country: US Constellation: starlink
LEOCIRCULAR

关于 Starlink 32175

正在加载描述...

实时位置

正在加载3D地球...

即将过境

高度历史

Altitude vs Time

uPlot chart will show altitude changes over time

两行轨道根数

1 60339U 24136L 25261.12486984 .00005889 00000-0 21092-3 0 9992
2 60339 53.1593 157.2499 0001018 46.1256 313.9829 15.30180381 63240
Epoch: Sep 18, 2025 • Age: 19 hours

当前状态

高度 484.1 km
速度 7.62 km/s
星下点 -29.27°S, 166.23°E
发射日期 Aug 2, 2024
运行时间 1.1 years
类型 internet

技术详情

分类 Payload
质量 730.00 kg
干质量 700.00 kg
总质量 730.00 kg
长度 0.30 m
直径 4.10 m
跨度 29.00 m
形状 Box + pan
制造商 SPXS
平台类型 Starlink V2M
阶段状态 In Orbit
所有者/国家 SPXS/US

大型星座

Loading constellations...